CW9414 Weather Reports


time (UTC)temp
C
wind
direction
speed
KPH
gust
KPH
rain 1hr
cm
rain 24hr
cm
rain mn
cm
humidity
%
barometer
mb
20260510065408 23 165 0.0 3.2 0.00 0.00 0.00 87 1007.0
20260510064411 23 165 0.0 4.8 0.00 0.00 0.00 86 1007.0
20260510063407 23 173 6.4 8.0 0.00 0.00 0.00 86 1007.0
20260510062407 23 178 0.0 6.4 0.00 0.00 0.00 86 1007.1
20260510061407 23 178 0.0 6.4 0.00 0.00 0.00 86 1007.3
20260510060407 23 178 0.0 4.8 0.00 0.00 0.00 86 1007.3
20260510055407 23 178 0.0 3.2 0.00 0.00 0.00 86 1007.3
20260510054407 23 178 1.6 4.8 0.00 0.00 0.00 85 1007.5
20260510053407 23 178 0.0 1.6 0.00 0.00 0.00 85 1007.5
20260510052407 23 178 0.0 4.8 0.00 0.00 0.00 84 1007.4
20260510051408 23 178 1.6 3.2 0.00 0.00 0.00 84 1007.5
20260510050410 23 178 0.0 6.4 0.00 0.00 0.38 83 1007.5
20260510045407 23 178 0.0 1.6 0.00 0.00 0.38 83 1007.4
20260510044408 22 178 0.0 0.0 0.00 0.00 0.38 82 1007.6
20260510043408 22 178 0.0 0.0 0.00 0.00 0.38 82 1007.6
20260510042407 22 178 0.0 0.0 0.00 0.00 0.38 82 1007.6
20260510041410 22 178 0.0 1.6 0.00 0.00 0.38 83 1007.5
20260510040408 22 178 0.0 1.6 0.00 0.00 0.38 83 1007.5
20260510035408 22 178 0.0 3.2 0.00 0.00 0.38 83 1007.6
20260510034407 22 178 0.0 3.2 0.00 0.00 0.38 83 1007.7
20260510033407 22 178 0.0 0.0 0.00 0.00 0.38 83 1007.7
20260510032407 22 178 0.0 0.0 0.00 0.00 0.38 83 1007.6
20260510031407 22 178 0.0 0.0 0.00 0.00 0.38 82 1007.2
20260510030407 22 178 0.0 0.0 0.00 0.00 0.38 82 1007.2
20260510025408 22 178 0.0 0.0 0.00 0.00 0.38 82 1006.7
20260510024408 22 178 0.0 1.6 0.00 0.00 0.38 82 1006.3
20260510023407 22 178 0.0 1.6 0.00 0.00 0.38 82 1006.3
20260510022411 22 178 0.0 1.6 0.00 0.00 0.38 81 1006.0
20260510021410 22 178 0.0 1.6 0.00 0.00 0.38 81 1005.4
20260510020407 22 178 0.0 0.0 0.00 0.00 0.38 79 1005.4
20260510015407 22 178 0.0 0.0 0.00 0.00 0.38 79 1004.9
20260510014408 22 178 0.0 0.0 0.00 0.00 0.38 78 1004.9
20260510013407 22 178 0.0 0.0 0.00 0.00 0.38 78 1004.9
20260510012407 22 178 0.0 0.0 0.00 0.00 0.38 78 1004.8
20260510011408 22 178 0.0 0.0 0.00 0.00 0.38 77 1004.9
20260510010408 22 178 0.0 0.0 0.00 0.00 0.38 76 1004.9
20260510005408 22 178 0.0 0.0 0.00 0.00 0.38 75 1004.4
20260510004408 22 178 0.0 3.2 0.00 0.00 0.38 75 1004.4
20260510003407 22 178 0.0 3.2 0.00 0.00 0.38 75 1004.4
20260510002407 22 180 0.0 0.0 0.00 0.00 0.38 74 1005.0
20260510001407 22 163 1.6 6.4 0.00 0.00 0.38 71 1005.8
20260510000408 23 145 0.0 3.2 0.00 0.00 0.38 70 1005.8
20260509235407 25 155 3.2 19.3 0.00 0.00 0.33 63 1005.0
20260509234411 27 189 4.8 25.7 0.00 0.00 0.15 55 1004.6
20260509233407 30 202 3.2 12.9 0.00 0.00 0.00 49 1004.7
20260509232407 31 138 0.0 8.0 0.00 0.00 0.00 54 1004.3
20260509231407 32 311 0.0 4.8 0.00 0.00 0.00 52 1004.1
20260509230407 32 311 0.0 0.0 0.00 0.00 0.00 51 1004.1
20260509225407 33 311 0.0 3.2 0.00 0.00 0.00 51 1003.8
20260509224407 33 311 0.0 1.6 0.00 0.00 0.00 49 1003.9
20260509223410 34 311 0.0 4.8 0.00 0.00 0.00 48 1003.9
20260509222410 35 313 1.6 3.2 0.00 0.00 0.00 49 1003.6
20260509221407 35 313 0.0 4.8 0.00 0.00 0.00 49 1003.6
20260509220407 34 313 0.0 4.8 0.00 0.00 0.00 49 1003.6
20260509215407 34 313 1.6 3.2 0.00 0.00 0.00 50 1003.7
20260509214408 34 313 0.0 4.8 0.00 0.00 0.00 52 1003.7
20260509213407 33 313 0.0 4.8 0.00 0.00 0.00 51 1003.7
20260509212407 33 313 0.0 8.0 0.00 0.00 0.00 52 1003.8
20260509211407 33 313 1.6 6.4 0.00 0.00 0.00 55 1004.1
20260509210407 33 300 0.0 1.6 0.00 0.00 0.00 55 1004.1
20260509205407 33 300 3.2 6.4 0.00 0.00 0.00 54 1004.4
20260509204407 33 300 1.6 8.0 0.00 0.00 0.00 55 1004.5
20260509203407 32 302 0.0 4.8 0.00 0.00 0.00 56 1004.5
20260509202410 32 302 0.0 4.8 0.00 0.00 0.00 56 1004.6
20260509201410 32 302 0.0 3.2 0.00 0.00 0.00 58 1004.7
20260509200406 32 302 1.6 4.8 0.00 0.00 0.00 57 1004.7
20260509195407 32 303 1.6 8.0 0.00 0.00 0.00 57 1004.9
20260509194407 32 304 0.0 6.4 0.00 0.00 0.00 61 1005.1
20260509193407 31 304 1.6 6.4 0.00 0.00 0.00 60 1005.1
20260509192407 31 304 1.6 8.0 0.00 0.00 0.00 59 1005.1
20260509191407 31 306 6.4 11.3 0.00 0.00 0.00 61 1005.1
20260509190407 30 140 1.6 3.2 0.00 0.00 0.00 64 1005.1
20260509185406 30 140 1.6 4.8 0.00 0.00 0.00 64 1005.2
20260509184407 30 140 0.0 4.8 0.00 0.00 0.00 64 1005.6
20260509183407 30 140 1.6 4.8 0.00 0.00 0.00 66 1005.6
20260509182406 29 140 1.6 4.8 0.00 0.00 0.00 68 1005.8
20260509181407 29 140 0.0 4.8 0.00 0.00 0.00 68 1006.1
20260509180410 29 140 3.2 6.4 0.00 0.00 0.00 69 1006.1
20260509175410 29 140 0.0 4.8 0.00 0.00 0.00 69 1006.2
20260509174411 29 140 0.0 14.5 0.00 0.00 0.00 71 1006.6
20260509173407 28 142 8.0 9.7 0.00 0.00 0.00 74 1006.6
20260509172410 28 142 4.8 8.0 0.00 0.00 0.00 77 1006.6
20260509171410 27 146 4.8 9.7 0.00 0.00 0.00 79 1006.8
20260509170406 27 146 0.0 6.4 0.00 0.00 0.00 82 1006.8
20260509165407 26 146 0.0 3.2 0.00 0.00 0.00 83 1006.7
20260509164406 26 146 0.0 3.2 0.00 0.00 0.00 85 1006.7
20260509163406 26 146 1.6 3.2 0.00 0.00 0.00 87 1006.7
20260509162407 26 146 0.0 1.6 0.00 0.00 0.00 88 1006.7
20260509161407 26 146 0.0 1.6 0.00 0.00 0.00 89 1006.6
20260509160409 25 146 3.2 4.8 0.00 0.00 0.00 89 1006.6
20260509155408 25 146 0.0 0.0 0.00 0.00 0.00 90 1006.8
20260509154407 25 146 0.0 1.6 0.00 0.00 0.00 91 1006.6
20260509153406 25 146 0.0 1.6 0.00 0.00 0.00 91 1006.6
20260509152406 25 146 0.0 0.0 0.00 0.00 0.00 92 1006.7
20260509151407 25 146 0.0 0.0 0.00 0.00 0.00 92 1006.6
20260509150406 25 146 0.0 0.0 0.00 0.00 0.00 93 1006.6
20260509145406 25 146 0.0 0.0 0.00 0.00 0.00 93 1006.4
20260509144406 25 146 0.0 0.0 0.00 0.00 0.00 93 1006.0
20260509143407 24 146 0.0 0.0 0.00 0.00 0.00 94 1006.0
20260509142406 24 146 0.0 0.0 0.00 0.00 0.00 94 1005.8
20260509141406 24 146 0.0 1.6 0.00 0.00 0.00 94 1005.5
20260509140406 24 146 0.0 1.6 0.00 0.00 0.00 94 1005.5
20260509135407 24 146 0.0 1.6 0.00 0.00 0.00 94 1006.0
20260509134407 24 146 0.0 3.2 0.00 0.00 0.00 94 1006.6
20260509133406 24 146 0.0 1.6 0.00 0.00 0.00 94 1006.6
20260509132407 24 146 0.0 3.2 0.00 0.00 0.00 94 1006.6
20260509131407 24 146 0.0 0.0 0.00 0.00 0.00 94 1007.1
20260509130410 23 146 0.0 0.0 0.00 0.00 0.00 94 1007.1
20260509125406 23 146 0.0 0.0 0.00 0.00 0.00 94 1006.4
20260509124406 23 146 0.0 1.6 0.00 0.00 0.00 94 1006.6
20260509123406 23 146 0.0 0.0 0.00 0.00 0.00 94 1006.6
20260509122411 23 146 0.0 0.0 0.00 0.00 0.00 93 1006.6
20260509121406 23 146 0.0 0.0 0.00 0.00 0.00 93 1006.6
20260509120406 23 146 0.0 0.0 0.00 0.00 0.00 93 1006.6
20260509115409 23 146 0.0 0.0 0.00 0.00 0.00 93 1006.3
20260509114406 23 146 0.0 0.0 0.00 0.00 0.00 93 1006.2
20260509113406 23 146 0.0 1.6 0.00 0.00 0.00 93 1006.2
20260509112407 23 146 0.0 0.0 0.00 0.00 0.00 93 1006.1
20260509111406 23 146 0.0 0.0 0.00 0.00 0.00 93 1006.0
20260509110406 23 146 0.0 0.0 0.00 0.00 0.00 93 1006.0
20260509105406 23 146 0.0 0.0 0.00 0.00 0.00 93 1005.6
20260509104406 23 146 0.0 0.0 0.00 0.00 0.00 92 1005.5
20260509103406 23 146 0.0 0.0 0.00 0.00 0.00 92 1005.5
20260509102407 23 146 0.0 0.0 0.00 0.00 0.00 92 1005.9
20260509101407 23 146 0.0 0.0 0.00 0.00 0.00 92 1005.6
20260509100407 23 146 0.0 0.0 0.00 0.00 0.00 92 1005.6
20260509095407 23 146 0.0 0.0 0.00 0.00 0.00 92 1005.3
20260509094409 23 146 0.0 0.0 0.00 0.00 0.00 92 1005.2
20260509093409 23 146 0.0 0.0 0.00 0.00 0.00 92 1005.2
20260509092409 23 146 0.0 0.0 0.00 0.00 0.00 92 1005.5
20260509091406 23 146 0.0 0.0 0.00 0.00 0.00 92 1005.8
20260509090406 23 146 0.0 0.0 0.00 0.00 0.00 92 1005.8
20260509085409 23 146 0.0 0.0 0.00 0.00 0.00 92 1005.8
20260509084406 23 146 0.0 0.0 0.00 0.00 0.00 92 1005.5
20260509083407 23 146 0.0 0.0 0.00 0.00 0.00 92 1005.5
20260509082406 23 146 0.0 0.0 0.00 0.00 0.00 92 1005.5
20260509081406 23 146 0.0 0.0 0.00 0.00 0.00 92 1005.5
20260509080406 23 146 0.0 0.0 0.00 0.00 0.00 92 1005.5
20260509075406 23 146 0.0 0.0 0.00 0.00 0.00 92 1005.5
20260509074406 23 146 0.0 1.6 0.00 0.00 0.00 92 1005.2
20260509073409 23 146 0.0 4.8 0.00 0.00 0.00 92 1005.2
20260509072409 23 146 0.0 1.6 0.00 0.00 0.00 92 1005.6
20260509071406 23 146 0.0 1.6 0.00 0.00 0.00 92 1005.9
20260509070406 23 146 0.0 1.6 0.00 0.00 0.00 91 1005.9